Iron Mountain, MI

1:05 AM CDT on August 23, 2017 (GMT -0500)
Ford

Weather History for KIMT - June, 2011

Change the Weather History Date:

Sunday, June 26, 2011

  Actual Average Record
Temperature  
Mean Temperature 66 °F -  
Max Temperature 82 °F 78 °F 94 °F (1941)
Min Temperature 50 °F 53 °F 36 °F (1945)
Growing Degree Days 16 (Base 50)    
Moisture  
Dew Point 54 °F    
Average Humidity 65    
Maximum Humidity 97    
Minimum Humidity 35    
Precipitation  
Precipitation 0.00 in - - ()
Sea Level Pressure  
Sea Level Pressure 29.95 in    
Wind  
Wind Speed 4 mph (South)    
Max Wind Speed 14 mph    
Max Gust Speed 18 mph    
Visibility 10 miles    
Events      
Averages and records for this station are not official NWS values.
T = Trace of Precipitation, MM = Missing Value Source: NWS Daily Summary

Daily Weather History Graph

Daily Weather History Graph

Search for Another Location

Airport or City:

Trip Planner

Search our weather history database for the weather conditions in past years. The results will help you decide how hot, cold, wet, or windy it might be!

Date:

Astronomy

Jun. 26, 2011 Rise Set
Actual Time 5:03 AM CDT 8:46 PM CDT
Civil Twilight 4:25 AM CDT 9:24 PM CDT
Nautical Twilight 3:33 AM CDT 10:16 PM CDT
Astronomical Twilight 2:22 AM CDT 11:27 PM CDT
Moon 1:28 AM CDT (6/26) 4:30 PM CDT (6/26)
Length of Visible Light 16h 59m
Length of Day
15h 42m
Waning Crescent, 21% of the Moon is Illuminated
Jun 26
Waning Crescent
Jul 1
New
Jul 8
First Quarter
Jul 15
Full
Jul 23
Last Quarter

Hourly Weather History & Observations

Time (CDT) Temp. Heat Index Dew Point Humidity Pressure Visibility Wind Dir Wind Speed Gust Speed Precip Events Conditions
12:54 AM 57.9 °F - 55.0 °F 90% 29.95 in 10.0 mi NW 3.5 mph - N/A   Clear
1:54 AM 55.0 °F - 54.0 °F 96% 29.94 in 10.0 mi Calm Calm - N/A   Mostly Cloudy
2:54 AM 55.0 °F - 53.1 °F 93% 29.94 in 10.0 mi NW 3.5 mph - N/A   Clear
3:54 AM 52.0 °F - 51.1 °F 97% 29.95 in 10.0 mi Calm Calm - N/A   Clear
4:54 AM 50.0 °F - 48.9 °F 96% 29.97 in 7.0 mi Calm Calm - N/A   Clear
5:54 AM 51.1 °F - 50.0 °F 96% 29.99 in 10.0 mi Calm Calm - N/A   Clear
6:54 AM 55.9 °F - 53.1 °F 90% 30.00 in 10.0 mi Calm Calm - N/A   Clear
7:54 AM 62.1 °F - 54.0 °F 75% 30.00 in 10.0 mi Calm Calm - N/A   Clear
8:54 AM 69.1 °F - 55.0 °F 61% 29.99 in 10.0 mi Calm Calm - N/A   Clear
9:54 AM 73.9 °F - 57.0 °F 55% 29.98 in 10.0 mi Calm Calm - N/A   Clear
10:54 AM 78.1 °F - 52.0 °F 40% 29.99 in 10.0 mi South 8.1 mph - N/A   Clear
11:54 AM 80.1 °F - 50.0 °F 35% 29.98 in 10.0 mi Variable 6.9 mph - N/A   Clear
12:54 PM 81.0 °F - 51.1 °F 35% 29.96 in 10.0 mi SSW 8.1 mph - N/A   Clear
1:54 PM 81.0 °F 80.4 °F 53.1 °F 38% 29.94 in 10.0 mi South 10.4 mph 18.4 mph N/A   Clear
2:54 PM 81.0 °F 80.4 °F 53.1 °F 38% 29.93 in 10.0 mi South 11.5 mph 18.4 mph N/A   Clear
3:54 PM 79.0 °F - 53.1 °F 40% 29.93 in 10.0 mi SSE 10.4 mph 18.4 mph N/A   Clear
4:54 PM 81.0 °F 80.5 °F 54.0 °F 39% 29.93 in 10.0 mi SSE 9.2 mph 17.3 mph N/A   Clear
5:54 PM 78.1 °F - 57.0 °F 48% 29.92 in 10.0 mi SSE 6.9 mph - N/A   Partly Cloudy
6:54 PM 75.9 °F - 59.0 °F 56% 29.93 in 10.0 mi SSE 13.8 mph 18.4 mph N/A   Clear
7:54 PM 73.0 °F - 57.9 °F 59% 29.92 in 10.0 mi SSE 11.5 mph 17.3 mph N/A   Clear
8:54 PM 69.1 °F - 55.9 °F 63% 29.92 in 10.0 mi SSE 6.9 mph - N/A   Clear
9:54 PM 66.0 °F - 55.9 °F 70% 29.95 in 10.0 mi SSE 3.5 mph - N/A   Clear
10:54 PM 64.0 °F - 55.9 °F 75% 29.92 in 10.0 mi SE 3.5 mph - N/A   Partly Cloudy
11:54 PM 64.0 °F - 55.0 °F 73% 29.89 in 10.0 mi Calm Calm - N/A   Clear